Location: Avon Lake
(41.5219°N, 93.5010°W)
Time: 09:37:14
(UTC+00:00)

Tiangong - Visible Passes

Search period start: 20 April 2024 00:00
Search period end: 30 April 2024 00:00
Orbit: 371 x 379 km, 41.5° (Epoch: 19 April)

Date Brightness Start Highest point End Pass type
(mag) Time Alt. Az. Time Alt. Az. Time Alt. Az.
20 Apr -2.4 02:34:41 10° WSW 02:37:46 78° S 02:38:07 66° ESE visible
21 Apr -2.1 01:31:58 10° WSW 01:35:00 58° SSE 01:38:03 10° E visible
21 Apr -0.8 03:08:30 10° W 03:10:30 37° W 03:10:30 37° W visible
22 Apr -2.3 02:05:37 10° W 02:08:43 89° S 02:10:42 20° E visible
22 Apr 0.8 03:42:14 10° W 03:42:43 14° W 03:42:43 14° W visible
23 Apr -2.3 02:39:17 10° W 02:42:23 85° S 02:42:45 66° ESE visible
24 Apr -2.2 01:36:16 10° W 01:39:21 88° N 01:42:26 10° E visible
24 Apr -0.6 03:12:54 10° W 03:14:41 30° WSW 03:14:41 30° WSW visible
25 Apr -2.2 02:09:46 10° W 02:12:50 73° SSW 02:14:31 24° ESE visible
26 Apr -1.4 02:43:15 10° W 02:46:08 36° SSW 02:46:16 36° SSW visible
27 Apr -1.9 01:39:56 10° W 01:42:58 57° SSW 01:45:57 10° ESE visible
27 Apr 0.5 03:17:15 10° WSW 03:17:56 13° WSW 03:17:56 13° WSW visible
28 Apr -0.7 02:13:24 10° W 02:16:02 26° SSW 02:17:35 17° SSE visible
